Lynchburg, VA

10:06 AM EDT on April 21, 2018 (GMT -0400)
Lynchburg Regional-Glenn

Weather History for KLYH - March, 2012

Change the Weather History Date:

Thursday, March 1, 2012

  Actual Average Record
Temperature  
Mean Temperature 57 °F 41 °F  
Max Temperature 71 °F 53 °F 78 °F (1918)
Min Temperature 43 °F 30 °F 8 °F (1934)
Degree Days  
Heating Degree Days 8 24  
Month to date heating degree days 8 24  
Since 1 July heating degree days 2936 3448  
Cooling Degree Days 0 0  
Month to date cooling degree days 0 0  
Year to date cooling degree days 0 0  
Growing Degree Days 8 (Base 50)    
Moisture  
Dew Point 44 °F    
Average Humidity 58    
Maximum Humidity 100    
Minimum Humidity 16    
Precipitation  
Precipitation 0.26 in 0.10 in 1.94 in (1900)
Month to date precipitation 0.26 0.10  
Year to date precipitation 5.09 6.17  
Snow  
Snow 0.00 in - - ()
Month to date snowfall 0.0  
Since 1 July snowfall 7.7  
Snow Depth 0.00 in    
Sea Level Pressure  
Sea Level Pressure 29.76 in    
Wind  
Wind Speed 7 mph (WSW)    
Max Wind Speed 21 mph    
Max Gust Speed 33 mph    
Visibility 7 miles    
Events Fog , Rain , Thunderstorm    
T = Trace of Precipitation, MM = Missing Value Source: NWS Daily Summary

Daily Weather History Graph

Daily Weather History Graph

Search for Another Location

Airport or City:

Astronomy

Mar. 01, 2012 Rise Set
Actual Time 6:47 AM EST 6:11 PM EST
Civil Twilight 6:21 AM EST 6:37 PM EST
Nautical Twilight 5:50 AM EST 7:07 PM EST
Astronomical Twilight 5:20 AM EST 7:37 PM EST
Moon 11:35 AM EST (3/1) 1:38 AM EST (3/1)
Length of Visible Light 12h 16m
Length of Day
11h 23m
First Quarter, 56% of the Moon is Illuminated
Mar 1
First Quarter
Mar 8
Full
Mar 14
Last Quarter
Mar 22
New
Mar 30
First Quarter

Hourly Weather History & Observations

Time (EST) Temp. Windchill Dew Point Humidity Pressure Visibility Wind Dir Wind Speed Gust Speed Precip Events Conditions
12:54 AM 57.9 °F - 57.0 °F 97% 29.73 in 10.0 mi SSW 8.1 mph - N/A   Mostly Cloudy
1:07 AM 57.2 °F - 55.4 °F 94% 29.74 in 10.0 mi South 6.9 mph - N/A Thunderstorm Mostly Cloudy
1:22 AM 57.2 °F - 55.4 °F 94% 29.76 in 4.0 mi NNW 11.5 mph 21.9 mph 0.02 in Rain Heavy Rain
1:25 AM 57.2 °F - 55.4 °F 94% 29.77 in 1.8 mi Variable 6.9 mph 21.9 mph 0.07 in Rain Heavy Rain
1:27 AM 55.4 °F - 55.4 °F 100% 29.76 in 1.2 mi West 9.2 mph 21.9 mph 0.16 in Rain Heavy Rain
1:34 AM 57.2 °F - 53.6 °F 88% 29.77 in 2.0 mi West 10.4 mph 20.7 mph 0.26 in Rain Rain
1:36 AM 57.2 °F - 53.6 °F 88% 29.76 in 3.0 mi West 9.2 mph 20.7 mph 0.26 in Rain Light Rain
1:54 AM 57.0 °F - 54.0 °F 89% 29.75 in 10.0 mi Variable 4.6 mph - 0.26 in   Mostly Cloudy
2:01 AM 57.2 °F - 53.6 °F 88% 29.76 in 10.0 mi West 5.8 mph - N/A   Overcast
2:28 AM 55.4 °F - 53.6 °F 94% 29.75 in 10.0 mi SSW 4.6 mph - 0.00 in Rain Light Rain
2:54 AM 54.0 °F - 53.1 °F 97% 29.73 in 10.0 mi SW 4.6 mph - 0.00 in   Partly Cloudy
3:44 AM 53.6 °F - 51.8 °F 94% 29.74 in 1.8 mi Calm Calm - N/A   Clear
3:47 AM 53.6 °F - 51.8 °F 94% 29.73 in 0.8 mi Calm Calm - N/A   Mist
3:54 AM 51.1 °F - 51.1 °F 100% 29.72 in 0.2 mi Calm Calm - N/A Fog Fog
4:12 AM 53.6 °F - 53.6 °F 100% 29.73 in 0.5 mi Calm Calm - N/A Fog Fog
4:23 AM 53.6 °F - 53.6 °F 100% 29.73 in 1.2 mi Calm Calm - N/A   Scattered Clouds
4:25 AM 53.6 °F - 53.6 °F 100% 29.73 in 2.0 mi SSW 3.5 mph - N/A   Scattered Clouds
4:32 AM 51.8 °F - 51.8 °F 100% 29.73 in 1.0 mi Calm Calm - N/A   Mist
4:39 AM 53.6 °F - 51.8 °F 94% 29.73 in 0.8 mi SW 4.6 mph - N/A   Mist
4:42 AM 53.6 °F - 51.8 °F 94% 29.73 in 1.5 mi SW 4.6 mph - N/A   Partly Cloudy
4:44 AM 53.6 °F - 51.8 °F 94% 29.73 in 4.0 mi SW 5.8 mph - N/A   Partly Cloudy
4:54 AM 54.0 °F - 53.1 °F 97% 29.72 in 10.0 mi SW 4.6 mph - N/A   Partly Cloudy
5:54 AM 54.0 °F - 52.0 °F 93% 29.72 in 10.0 mi SW 4.6 mph - N/A   Clear
6:54 AM 54.0 °F - 46.9 °F 77% 29.73 in 10.0 mi SW 6.9 mph - N/A   Clear
7:54 AM 59.0 °F - 42.1 °F 53% 29.74 in 10.0 mi WSW 8.1 mph - N/A   Clear
8:54 AM 62.1 °F - 42.1 °F 48% 29.75 in 10.0 mi Variable 6.9 mph - N/A   Clear
9:54 AM 63.0 °F - 37.0 °F 38% 29.76 in 10.0 mi West 10.4 mph 23.0 mph N/A   Clear
10:54 AM 64.9 °F - 37.0 °F 36% 29.76 in 10.0 mi WSW 9.2 mph 23.0 mph N/A   Clear
11:54 AM 66.9 °F - 28.9 °F 24% 29.76 in 10.0 mi West 8.1 mph 23.0 mph N/A   Clear
12:54 PM 69.1 °F - 28.9 °F 22% 29.73 in 10.0 mi West 10.4 mph 20.7 mph N/A   Clear
1:54 PM 70.0 °F - 26.1 °F 19% 29.71 in 10.0 mi West 11.5 mph 27.6 mph N/A   Clear
2:54 PM 70.0 °F - 25.0 °F 18% 29.71 in 10.0 mi West 15.0 mph 25.3 mph N/A   Clear
3:54 PM 70.0 °F - 21.9 °F 16% 29.72 in 10.0 mi West 11.5 mph 25.3 mph N/A   Clear
4:54 PM 70.0 °F - 21.0 °F 16% 29.74 in 10.0 mi WSW 4.6 mph - N/A   Clear
5:54 PM 66.0 °F - 24.1 °F 20% 29.78 in 10.0 mi Calm Calm - N/A   Clear
6:54 PM 57.9 °F - 25.0 °F 28% 29.81 in 10.0 mi Calm Calm - N/A   Clear
7:54 PM 51.1 °F - 28.9 °F 43% 29.84 in 10.0 mi NNW 3.5 mph - N/A   Clear
8:54 PM 59.0 °F - 24.1 °F 26% 29.85 in 10.0 mi NW 4.6 mph - N/A   Clear
9:54 PM 48.9 °F - 32.0 °F 52% 29.88 in 10.0 mi NW 4.6 mph - N/A   Clear
10:54 PM 46.0 °F 43.9 °F 34.0 °F 63% 29.91 in 10.0 mi North 4.6 mph - N/A   Clear
11:54 PM 52.0 °F - 32.0 °F 47% 29.92 in 10.0 mi ENE 11.5 mph 18.4 mph N/A   Clear